Flag Weather past 2 weeks in Dushanbe, Tajikistan

Now
43 °F

Fog.


Feels Like: 43 °F
Forecast: 48 / 66 °F
Wind: No wind

Location: Dushanbe Airport

Current Time: Oct 31, 2014 at 9:28:20 AM

Latest Report: Oct 31, 2014 at 9:00 AM


Visibility: 2 mi

Pressure: 30.21 "Hg

Humidity: 81%

Dew point: 37 °F

Location of DushanbeLocation

Historic Weather in Dushanbe — Graph

°F

Dushanbe temperature yesterday

Maximum temperature yesterday: 57 °F (at 2:00 PM)
Minimum temperature yesterday: 36 °F (at 6:00 AM)
Average temperature yesterday: 46 °F

Past Weeks' High & Low Weather Summary

 TemperatureHumidityPressure
High86 °F (Oct 22, 2:00 PM)100% (Oct 24, 1:30 AM)30.45 "Hg (Oct 24, 1:30 AM)
Low36 °F (Oct 30, 6:00 AM)13% (Oct 22, 2:30 PM)29.89 "Hg (Oct 22, 3:30 PM)
Average57 °F62%30.12 "Hg
* Reported Oct 16 8:00 AM — Oct 31 8:30 AM, Dushanbe, Weather by CustomWeather, © 2014

Note: Actual official high and low records may vary slightly from our data, if they occured in-between our weather recording intervals... More about our weather records

Advertising

Dushanbe weather history for previous 24 hours

 ConditionsComfort  
Time TempWeatherWind HumidityBarometerVisibility
8:30 AM
Oct 31
41 °FFog.1 mph81%30.21 "Hg1 mi
8:00 AM37 °FFog.1 mph81%30.21 "Hg1 mi
7:30 AM36 °FFog.No wind93%30.21 "Hg2 mi
7:00 AM36 °FFog.1 mph93%30.21 "Hg2 mi
6:30 AM36 °FFog.No wind87%30.21 "Hg1 mi
6:00 AM36 °FFog.No wind93%30.21 "Hg1 mi
5:30 AM36 °FFog.No wind93%30.21 "Hg1 mi
5:00 AM37 °FFog.No wind81%30.21 "Hg2 mi
4:30 AM37 °FFog.1 mph87%30.21 "Hg3 mi
4:00 AM37 °FFog.1 mph87%30.21 "Hg2 mi
3:30 AM37 °FFog.No wind81%30.21 "Hg2 mi
3:00 AM37 °FFog.No wind87%30.21 "Hg2 mi
2:30 AM39 °FFog.No wind87%30.24 "Hg2 mi
2:00 AM39 °FFog.No wind87%30.24 "Hg2 mi
1:30 AM39 °FFog.No wind87%30.24 "Hg2 mi
1:00 AM41 °FFog.1 mph81%30.24 "Hg2 mi
12:30 AM39 °FFog.No wind87%30.27 "Hg2 mi
12:00 AM39 °FFog.No wind87%30.27 "Hg2 mi
11:30 PM
Oct 30
41 °FFog.No wind81%30.27 "Hg2 mi
11:00 PM43 °FFog.1 mph76%30.27 "Hg3 mi
10:30 PM43 °FPassing clouds.No wind76%30.27 "Hg2 mi
10:00 PM43 °FClear.1 mph81%30.27 "Hg3 mi
9:30 PM45 °FClear.1 mph76%30.27 "Hg3 mi
9:00 PM45 °FClear.No wind76%30.27 "Hg2 mi
8:30 PM45 °FClear.1 mph76%30.27 "Hg2 mi
8:00 PM46 °FClear.1 mph71%30.27 "Hg2 mi
7:30 PM46 °FClear.No wind71%30.27 "Hg2 mi
7:00 PM48 °FClear.1 mph66%30.27 "Hg2 mi
6:30 PM50 °FClear.1 mph58%30.27 "Hg2 mi
6:00 PM52 °FClear.No wind50%30.27 "Hg3 mi
5:30 PM54 °FClear.1 mph41%30.27 "HgN/A
5:00 PM55 °FSunny.1 mph41%30.27 "HgN/A
4:30 PM55 °FSunny.No wind38%30.27 "HgN/A
4:00 PM57 °FPassing clouds.No wind41%30.27 "HgN/A
3:30 PM55 °FPassing clouds.1 mph44%30.27 "Hg6 mi
3:00 PM57 °FPassing clouds.1 mph39%30.27 "HgN/A
2:30 PM57 °FPassing clouds.1 mph41%30.27 "Hg6 mi
2:00 PM57 °FPassing clouds.1 mph44%30.30 "HgN/A
1:30 PM55 °FPassing clouds.3 mph47%30.30 "HgN/A
1:00 PM54 °FPassing clouds.3 mph51%30.30 "Hg6 mi
12:30 PM54 °FPassing clouds.3 mph47%30.33 "HgN/A
12:00 PM52 °FPassing clouds.3 mph50%30.33 "HgN/A
11:30 AM52 °FPassing clouds.1 mph54%30.36 "Hg6 mi
11:00 AM50 °FPassing clouds.1 mph54%30.36 "HgN/A
10:30 AM48 °FPassing clouds.1 mph58%30.36 "Hg6 mi
10:00 AM46 °FPassing clouds.1 mph66%30.36 "Hg4 mi
9:30 AM45 °FFog.1 mph71%30.36 "Hg3 mi
9:00 AM43 °FFog.No wind76%30.39 "Hg2 mi
Weather by CustomWeather, © 2014

See weather overviewHow to use our weather pages